Showing default

MAROC TUBSAT, 27004

Orbit data source: Space-Track

MAROC TUBSAT, 27004 is a payload satellite owned by CRTS (DE) in SSO that was launched on Mon, 10 Dec 2001 UTC via a ZENIT-2 launch vehicle from the Tyuratam Missile And Space Complex (TTMTR). Payload-class satellites include a variety of spacecraft equipped with specific instruments for various scientific and technological missions. These include communications satellites like Starlink; space stations such as the ISS; scientific satellites like the Hubble; Earth observation satellites from companies like Planet Labs, Umbra, and HawkEye 360; GPS; miniature CubeSats for education and research; and military/defense satellites.

Loading next visibility...
Identifier
27004, 2001-056D
Orbit
SSO
Country
Flag of DEDE / GER
Related business
Manufacturer
TUB
Mission
Operational Civil Imaging
Bus & Motor
TUBSAT, Unknown motor
Mass
45 kg wet, 45 kg dry
Launch date (UTC)
2001-12-10 (24 years ago)
Launch vehicle
ZENIT-2
Launch site
Tyuratam Missile And Space Complex (TTMTR)
Object type
Payload
Rocket body
Debris
Shape & HBR
Box, 0.2 m
Radar Cross Section
0.200 m², Medium (>0.1 m² and < 1m²)

Expand to show TLE details & history
Last TLE update: 1 day ago

TLE from 1 day ago
0 MAROC TUBSAT
1 27004U 01056D   25260.00205262 -.00000013  00000-0  37653-4 0  9990
2 27004  99.7887  66.9423 0020500 121.5757 351.6101 13.70247054188779
Epoch: 2025-09-17T00:02Z
TLE epoch observation values (Epoch: 2025-09-17T00:02:57.346Z)
Latitude
65.05731°
Longitude
-88.3252°
Altitude
994.868 km
Speed
7.368 km/s
True Right ascension
17h 54m 23s
True Declination
64° 55' 47"
Sunlit
Object was in daylight at epoch
Visualization orbit readout
Latitude
Unknown
Longitude
Unknown
Altitude
Unknown
Speed
Unknown
Apparent Right ascension
Unknown
Apparent Declination
Unknown
Sunlit
N/A
Visualization observer readout
Local Sidereal Time
18:33:51
Azimuth
Unknown
Elevation
Unknown
Doppler factor
Unknown
Orbital elements
Apogee altitude
1,011.08 km
Perigee altitude
980.846 km
Semi-major axis
7,374.1 km
Eccentricity
0.00205
Inclination
99.7887°
RAAN
66.9423°
Arg. of periapsis
121.5757°
True anomaly
351.57574°
Mean anomaly
351.6101°
Eccentric anomaly
351.59293°
Mean motion
3.42752 °/min
Orbital period
105.03 mins
BSTAR
0.000037653
Loading maneuver chart data...
Computing Atmospheric mass density...
Loading historical data...
Loading historical data...
Loading historical data...
Loading historical data...
Loading historical data...
Loading historical data...
Loading historical data...

Documentation

Showing up to 5 results
|